Location: Altenst�hlen
(53.5567°N, 8.9425°E)
Time: 06:16:36
(UTC+00:00)

ADEOS Rocket - Pass Details

Date: 23 October 2019
Orbit: 859 x 1306 km, 98.7° (Epoch: 13 November)

Event Time Altitude Azimuth Distance (km) Brightness Sun altitude
Rises 18:00:38 0° 18° (NNE) 4,297 6.2 -16.9°
Reaches altitude 10° 18:03:51 10° 28° (NNE) 3,296 5.5 -17.4°
Maximum altitude 18:10:25 30° 88° (E) 2,039 4.1 -18.4°
Enters shadow 18:13:04 24° 122° (ESE) 2,246 4.4 -18.8°
